User: anonymous   Login
Location: Sungai Lasa
(2.4500°N, 113.4500°E)
Time: 09:17:11
(UTC+00:00)
Language:

SEDSat Delta rocket - Orbit

View from above orbital plane
View from above orbital plane
View from above satellite
View from above satellite

Ground track
Ground track

The orbit data is extracted from the following two-line orbital elements,

1 25510U 98061C   23156.68077516  .00000821  00000-0  13074-3 0  9993
2 25510  31.4337 231.7036 0321802 341.5635  17.3559 14.39059861291694
Epoch (UTC): 05 June 2023 16:20:18
Eccentricity: 0.0321802
inclination: 31.4337°
perigee height: 532 km
apogee height: 991 km
right ascension of ascending node: 231.7036°
argument of perigee: 341.5635°
revolutions per day: 14.39059861
mean anomaly at epoch: 17.3559°
orbit number at epoch: 29169

The dashed part of the orbit path shows where the satellite is in the earth's shadow,  

DLR